Time,TemperatureF,DewpointF,PressureIn,WindDirection,WindDirectionDegrees,WindSpeedMPH,WindSpeedGustMPH,Humidity,HourlyPrecipIn,Conditions,Clouds,dailyrainin,SoftwareType,DateUTC
2013-01-08 00:05:00,48.9,48.9,30.20,SSW,213,0.0,0.0,100,0.00,,,0.58,Wunderground v.1.15,2013-01-08 08:05:00,
2013-01-08 00:35:00,49.1,49.1,30.19,SSW,213,0.0,0.0,100,0.00,,,0.00,Wunderground v.1.15,2013-01-08 08:35:00,
2013-01-08 01:05:00,49.2,49.2,30.18,SSW,213,0.0,0.0,100,0.00,,,0.00,Wunderground v.1.15,2013-01-08 09:05:00,
2013-01-08 01:35:00,49.4,49.4,30.19,SSW,213,0.0,0.0,100,0.00,,,0.00,Wunderground v.1.15,2013-01-08 09:35:00,
2013-01-08 02:05:00,49.5,49.5,30.18,WSW,248,0.0,0.0,100,0.00,,,0.00,Wunderground v.1.15,2013-01-08 10:05:00,
2013-01-08 02:35:00,49.6,49.6,30.18,North,6,0.0,0.0,100,0.00,,,0.00,Wunderground v.1.15,2013-01-08 10:35:00,
2013-01-08 03:05:00,49.5,49.5,30.18,WSW,253,0.0,0.0,100,0.00,,,0.00,Wunderground v.1.15,2013-01-08 11:05:00,
2013-01-08 03:35:00,49.6,49.6,30.17,NE,34,0.0,0.0,100,0.00,,,0.00,Wunderground v.1.15,2013-01-08 11:35:00,
2013-01-08 04:05:00,49.6,49.6,30.16,SE,128,0.0,0.0,100,0.00,,,0.00,Wunderground v.1.15,2013-01-08 12:05:00,
2013-01-08 04:35:00,49.8,49.8,30.14,WNW,292,0.0,0.0,100,0.00,,,0.01,Wunderground v.1.15,2013-01-08 12:35:00,
2013-01-08 05:05:00,49.9,49.9,30.14,WSW,250,0.0,0.0,100,0.00,,,0.01,Wunderground v.1.15,2013-01-08 13:05:00,
2013-01-08 05:35:00,50.1,50.1,30.14,West,265,0.0,0.0,100,0.00,,,0.01,Wunderground v.1.15,2013-01-08 13:35:00,
2013-01-08 06:05:00,50.2,50.2,30.14,ENE,64,0.0,0.0,100,0.00,,,0.02,Wunderground v.1.15,2013-01-08 14:05:00,
2013-01-08 06:35:00,50.4,50.4,30.14,NNE,21,0.0,0.0,100,0.00,,,0.03,Wunderground v.1.15,2013-01-08 14:35:00,
2013-01-08 07:05:00,50.4,50.4,30.14,South,182,0.0,0.0,100,0.00,,,0.04,Wunderground v.1.15,2013-01-08 15:05:00,
2013-01-08 07:35:00,50.4,50.4,30.14,ENE,68,0.0,2.0,100,0.00,,,0.04,Wunderground v.1.15,2013-01-08 15:35:00,
2013-01-08 08:05:00,50.5,50.5,30.15,West,270,0.0,0.0,100,0.00,,,0.04,Wunderground v.1.15,2013-01-08 16:05:00,
2013-01-08 08:35:00,50.5,50.5,30.16,NE,42,0.0,0.0,100,0.00,,,0.04,Wunderground v.1.15,2013-01-08 16:35:00,
2013-01-08 09:05:00,50.7,50.7,30.16,SW,219,0.0,0.0,100,0.00,,,0.04,Wunderground v.1.15,2013-01-08 17:05:00,
2013-01-08 09:35:00,50.7,50.7,30.16,SW,229,0.0,0.0,100,0.00,,,0.04,Wunderground v.1.15,2013-01-08 17:35:00,
2013-01-08 10:05:00,50.7,50.7,30.16,East,95,0.0,0.0,100,0.00,,,0.04,Wunderground v.1.15,2013-01-08 18:05:00,
2013-01-08 10:35:00,51.0,51.0,30.15,SSW,205,0.0,0.0,100,0.00,,,0.04,Wunderground v.1.15,2013-01-08 18:35:00,
2013-01-08 11:05:00,51.1,51.1,30.14,WNW,302,0.0,1.0,100,0.00,,,0.04,Wunderground v.1.15,2013-01-08 19:05:00,
2013-01-08 11:35:00,51.1,51.1,30.13,NW,304,0.0,0.0,100,0.00,,,0.04,Wunderground v.1.15,2013-01-08 19:35:00,
2013-01-08 12:05:00,51.1,51.1,30.13,WSW,244,0.0,0.0,100,0.00,,,0.04,Wunderground v.1.15,2013-01-08 20:05:00,
2013-01-08 12:35:00,51.0,51.0,30.13,West,268,0.0,0.0,100,0.00,,,0.04,Wunderground v.1.15,2013-01-08 20:35:00,
2013-01-08 13:05:00,51.1,51.1,30.13,SW,232,0.0,0.0,100,0.00,,,0.04,Wunderground v.1.15,2013-01-08 21:05:00,
2013-01-08 13:35:00,51.1,51.1,30.12,WNW,284,0.0,0.0,100,0.00,,,0.04,Wunderground v.1.15,2013-01-08 21:35:00,
2013-01-08 14:05:00,51.3,51.3,30.11,North,0,0.0,0.0,100,0.00,,,0.04,Wunderground v.1.15,2013-01-08 22:05:00,
2013-01-08 14:35:00,51.3,51.3,30.09,South,181,0.0,0.0,100,0.00,,,0.05,Wunderground v.1.15,2013-01-08 22:35:00,
2013-01-08 15:05:00,51.4,51.4,30.09,NW,312,0.0,0.0,100,0.00,,,0.05,Wunderground v.1.15,2013-01-08 23:05:00,
2013-01-08 15:35:00,51.4,51.4,30.08,WNW,294,0.0,0.0,100,0.00,,,0.05,Wunderground v.1.15,2013-01-08 23:35:00,
2013-01-08 16:05:00,51.3,51.3,30.07,West,264,0.0,0.0,100,0.00,,,0.05,Wunderground v.1.15,2013-01-09 00:05:00,
2013-01-08 16:35:00,51.1,51.1,30.05,North,11,0.0,0.0,100,0.00,,,0.05,Wunderground v.1.15,2013-01-09 00:35:00,
2013-01-08 17:05:00,50.8,50.8,30.04,ENE,58,0.0,0.0,100,0.00,,,0.05,Wunderground v.1.15,2013-01-09 01:05:00,
2013-01-08 17:35:00,50.8,50.8,30.02,ENE,64,0.0,0.0,100,0.00,,,0.05,Wunderground v.1.15,2013-01-09 01:35:00,
2013-01-08 18:05:00,50.8,50.8,30.02,ENE,69,0.0,0.0,100,0.00,,,0.05,Wunderground v.1.15,2013-01-09 02:05:00,
2013-01-08 18:35:00,50.8,50.8,30.01,NE,41,0.0,0.0,100,0.00,,,0.05,Wunderground v.1.15,2013-01-09 02:35:00,
2013-01-08 19:05:00,50.8,50.8,30.00,North,0,0.0,0.0,100,0.00,,,0.05,Wunderground v.1.15,2013-01-09 03:05:00,
2013-01-08 19:35:00,50.7,50.7,29.99,WSW,254,0.0,0.0,100,0.00,,,0.05,Wunderground v.1.15,2013-01-09 03:35:00,
2013-01-08 20:05:00,50.7,50.7,29.99,ESE,116,0.0,0.0,100,0.00,,,0.05,Wunderground v.1.15,2013-01-09 04:05:00,
2013-01-08 20:35:00,50.5,50.5,29.99,WNW,287,0.0,0.0,100,0.00,,,0.05,Wunderground v.1.15,2013-01-09 04:35:00,
2013-01-08 21:05:00,50.4,50.4,29.99,WNW,302,0.0,0.0,100,0.00,,,0.05,Wunderground v.1.15,2013-01-09 05:05:00,
2013-01-08 21:35:00,50.7,50.7,29.98,WSW,237,0.0,1.0,100,0.00,,,0.05,Wunderground v.1.15,2013-01-09 05:35:00,
2013-01-08 22:05:00,50.7,50.7,29.98,WSW,241,0.0,0.0,100,0.00,,,0.05,Wunderground v.1.15,2013-01-09 06:05:00,
2013-01-08 22:35:00,50.7,50.7,29.96,North,354,0.0,0.0,100,0.00,,,0.05,Wunderground v.1.15,2013-01-09 06:35:00,
2013-01-08 23:05:00,50.7,50.7,29.96,SW,233,0.0,0.0,100,0.00,,,0.05,Wunderground v.1.15,2013-01-09 07:05:00,
2013-01-08 23:35:00,50.8,50.8,29.96,ENE,76,0.0,0.0,100,0.00,,,0.05,Wunderground v.1.15,2013-01-09 07:35:00,